History for KNYMEATP2

New York City, Meatpacking District, NY — Current Conditions
Daily Summary for June 28, 2017
  Current: High: Low: Average:
Temperature: 62.2°F 67.6°F 61.7°F 64.7°F
Dew Point: 53.6°F 54.9°F 52.6°F 53.5°F
Humidity: 73% 74% 62% 68%
Wind Speed: - 0.0mph - 0.0mph
Wind Gust: - 0.0mph - -
Wind: North - - North
Pressure: 30.09in 30.09in 30.01in -
Precipitation: 0.00in      
Statistics for the rest of the month
    High: Low: Average:
Temperature:   97.5°F 52.0°F 72.4°F
Dew Point:   79.7°F 43.4°F 61.3°F
Humidity:   100.0% 32.0% 69.3%
Wind Speed:   0.0mph from the North - 0.0mph
Wind Gust:   0.0mph from the North - -
Wind:   - - North
Pressure:   30.09in 29.58in -
Precipitation:   0.00in    
KNYMEATP2 Weather Graph
Tabular Data for June 28, 2017
Time Temp. Dew Point Pressure Wind Gust Humidity Rainfall
00:16 67.6°F 54.4°F 30.01in - 62% -
00:26 67.6°F 54.8°F 30.02in - 63% -
00:36 67.5°F 54.6°F 30.02in - 63% -
00:46 67.3°F 54.9°F 30.02in - 64% -
01:06 66.7°F 54.4°F 30.02in - 64% -
01:16 66.4°F 54.4°F 30.02in - 65% -
01:26 66.2°F 54.3°F 30.03in - 65% -
01:37 66.0°F 54.1°F 30.02in - 65% -
01:47 65.7°F 53.7°F 30.03in - 65% -
02:07 65.1°F 53.6°F 30.03in - 66% -
02:17 64.9°F 53.9°F 30.03in - 67% -
02:27 64.8°F 53.7°F 30.03in - 67% -
02:37 64.6°F 53.5°F 30.04in - 67% -
02:47 64.4°F 53.4°F 30.03in - 67% -
03:07 63.9°F 52.8°F 30.04in - 67% -
03:17 63.9°F 52.8°F 30.04in - 67% -
03:27 63.7°F 53.1°F 30.04in - 68% -
03:37 63.5°F 53.3°F 30.04in - 69% -
03:48 63.5°F 53.3°F 30.05in - 69% -
04:08 63.1°F 52.9°F 30.05in - 69% -
04:18 63.1°F 52.9°F 30.06in - 69% -
04:28 63.0°F 52.8°F 30.06in - 69% -
04:38 62.8°F 52.6°F 30.06in - 69% -
04:48 62.6°F 52.8°F 30.06in - 70% -
05:25 62.2°F 52.8°F 30.07in - 71% -
05:28 62.2°F 52.8°F 30.07in - 71% -
05:49 61.9°F 52.9°F 30.08in - 72% -
05:55 61.9°F 52.9°F 30.08in - 72% -
06:25 61.7°F 53.4°F 30.09in - 74% -
06:35 62.2°F 53.6°F 30.09in - 73% -
Comma Delimited File
Powered by Weather Underground, Inc.